Chignik, AK

3:45 AM AKST on January 18, 2017 (GMT -0900)
Chignik

Weather History for PAJC - January, 2012

Change the Weather History Date:

Thursday, January 19, 2012

  Actual Average Record
Temperature  
Mean Temperature 18 °F -  
Max Temperature 23 °F 33 °F 44 °F (2011)
Min Temperature 12 °F 27 °F 12 °F (1998)
Degree Days  
Heating Degree Days 48    
Moisture  
Dew Point 5 °F    
Average Humidity 60    
Maximum Humidity 74    
Minimum Humidity 42    
Precipitation  
Precipitation 0.00 in - - ()
Sea Level Pressure  
Sea Level Pressure 29.80 in    
Wind  
Wind Speed 4 mph (North)    
Max Wind Speed 23 mph    
Max Gust Speed 22 mph    
Visibility 10 miles    
Events      
Averages and records for this station are not official NWS values.
T = Trace of Precipitation, MM = Missing Value Source: NWS Daily Summary

Daily Weather History Graph

Daily Weather History Graph

Search for Another Location

Airport or City:

Trip Planner

Search our weather history database for the weather conditions in past years. The results will help you decide how hot, cold, wet, or windy it might be!

Date:

Astronomy

Jan. 19, 2012 Rise Set
Actual Time 9:51 AM AKST 5:37 PM AKST
Civil Twilight 9:07 AM AKST 6:21 PM AKST
Nautical Twilight 8:20 AM AKST 7:08 PM AKST
Astronomical Twilight 7:35 AM AKST 7:53 PM AKST
Moon 6:55 AM AKST (1/19) 2:04 PM AKST (1/19)
Length of Visible Light 9h 14m
Length of Day
7h 45m
Waning Crescent, 14% of the Moon is Illuminated
Jan 19
Waning Crescent
Jan 22
New
Jan 30
First Quarter
Feb 7
Full
Feb 14
Last Quarter

Hourly Weather History & Observations

Time (AKST) Temp. Windchill Dew Point Humidity Pressure Visibility Wind Dir Wind Speed Gust Speed Precip Events Conditions
12:16 AM 23.0 °F - 12.2 °F 63% 30.03 in 10.0 mi Calm Calm - N/A   Clear
12:36 AM 21.2 °F 16.4 °F 12.2 °F 68% 30.03 in 10.0 mi North 3.5 mph - N/A   Clear
12:56 AM 19.4 °F 14.3 °F 12.2 °F 74% 30.02 in 10.0 mi North 3.5 mph - N/A   Clear
1:16 AM 19.4 °F - 12.2 °F 74% 30.01 in 10.0 mi North - - N/A   Clear
1:36 AM 21.2 °F - 14.0 °F 74% 30.00 in 10.0 mi North - - N/A   Clear
1:56 AM 21.2 °F - 10.4 °F 63% 29.98 in 10.0 mi North - - N/A   Clear
2:16 AM 21.2 °F - 10.4 °F 63% 29.97 in 10.0 mi North - - N/A   Clear
2:36 AM 21.2 °F - 10.4 °F 63% 29.96 in 10.0 mi Calm Calm - N/A   Clear
2:56 AM 19.4 °F - 10.4 °F 68% 29.96 in 10.0 mi North - - N/A   Clear
3:16 AM 19.4 °F - 10.4 °F 68% 29.95 in 10.0 mi Calm Calm - N/A   Clear
3:36 AM 19.4 °F - 10.4 °F 68% 29.95 in 10.0 mi North - - N/A   Clear
3:56 AM 17.6 °F - 10.4 °F 73% 29.94 in 10.0 mi North - - N/A   Clear
4:16 AM 17.6 °F 12.3 °F 8.6 °F 68% 29.93 in 10.0 mi North 3.5 mph - N/A   Clear
4:36 AM 17.6 °F 12.3 °F 10.4 °F 73% 29.92 in 10.0 mi North 3.5 mph - N/A   Clear
4:56 AM 17.6 °F 12.3 °F 8.6 °F 68% 29.91 in 10.0 mi North 3.5 mph - N/A   Clear
5:16 AM 17.6 °F - 8.6 °F 68% 29.90 in 10.0 mi Calm Calm - N/A   Clear
5:36 AM 17.6 °F - 8.6 °F 68% 29.89 in 10.0 mi Calm Calm - N/A   Clear
5:56 AM 15.8 °F - 6.8 °F 68% 29.88 in 10.0 mi Calm Calm - N/A   Clear
6:16 AM 15.8 °F - 5.0 °F 62% 29.87 in 10.0 mi Calm Calm - N/A   Clear
6:36 AM 14.0 °F - 5.0 °F 67% 29.86 in 10.0 mi Calm Calm - N/A   Clear
6:56 AM 15.8 °F - 5.0 °F 62% 29.85 in 10.0 mi Calm Calm - N/A   Clear
7:16 AM 14.0 °F 8.2 °F 6.8 °F 73% 29.85 in 10.0 mi North 3.5 mph - N/A   Clear
7:36 AM 15.8 °F - 8.6 °F 73% 29.84 in 10.0 mi Calm Calm - N/A   Clear
7:56 AM 15.8 °F - 5.0 °F 62% 29.82 in 10.0 mi Calm Calm - N/A   Clear
8:36 AM 15.8 °F 7.2 °F 8.6 °F 73% 29.81 in 10.0 mi North 5.8 mph - N/A   Clear
8:56 AM 15.8 °F - 5.0 °F 62% 29.80 in 10.0 mi Calm Calm - N/A   Clear
9:16 AM 15.8 °F 10.2 °F 3.2 °F 58% 29.79 in 10.0 mi North 3.5 mph - N/A   Clear
9:36 AM 15.8 °F 10.2 °F 3.2 °F 58% 29.78 in 10.0 mi North 3.5 mph - N/A   Clear
9:56 AM 15.8 °F 8.6 °F 3.2 °F 58% 29.77 in 10.0 mi North 4.6 mph - N/A   Clear
10:16 AM 15.8 °F - -0.4 °F 49% 29.77 in 10.0 mi Calm Calm - N/A   Clear
10:36 AM 17.6 °F 12.3 °F 1.4 °F 49% 29.75 in 10.0 mi North 3.5 mph - N/A   Clear
10:56 AM 17.6 °F 10.7 °F 1.4 °F 49% 29.75 in 10.0 mi North 4.6 mph - N/A   Clear
11:36 AM 17.6 °F - 1.4 °F 49% 29.72 in 10.0 mi Calm Calm - N/A   Clear
11:56 AM 17.6 °F - 1.4 °F 49% 29.71 in 10.0 mi Calm Calm - N/A   Clear
12:16 PM 17.6 °F - -0.4 °F 45% 29.70 in 10.0 mi Calm Calm - N/A   Clear
12:36 PM 17.6 °F - 1.4 °F 49% 29.68 in 10.0 mi Calm Calm - N/A   Clear
12:56 PM 19.4 °F 14.3 °F 1.4 °F 46% 29.67 in 10.0 mi North 3.5 mph - N/A   Clear
1:16 PM 19.4 °F 6.6 °F -0.4 °F 42% 29.66 in 10.0 mi North 12.7 mph - N/A   Clear
1:36 PM 19.4 °F 4.5 °F -0.4 °F 42% 29.66 in 10.0 mi North 17.3 mph 21.9 mph N/A   Clear
2:16 PM 15.8 °F 1.4 °F -0.4 °F 49% 29.66 in 10.0 mi North 13.8 mph 20.7 mph N/A   Clear
2:36 PM 15.8 °F 0.9 °F 1.4 °F 53% 29.65 in 10.0 mi North 15.0 mph 20.7 mph N/A   Clear
2:56 PM 15.8 °F 2.1 °F 1.4 °F 53% 29.64 in 10.0 mi North 12.7 mph - N/A   Clear
3:16 PM 14.0 °F -4.7 °F 1.4 °F 57% 29.64 in 10.0 mi North 23.0 mph - N/A   Clear
3:36 PM 12.2 °F -4.3 °F -0.4 °F 57% 29.64 in 10.0 mi North 16.1 mph 20.7 mph N/A   Clear
3:56 PM 12.2 °F -2.5 °F -0.4 °F 57% 29.64 in 10.0 mi North 12.7 mph - N/A   Clear
4:16 PM 12.2 °F -3.1 °F -2.2 °F 53% 29.64 in 10.0 mi North 13.8 mph 19.6 mph N/A   Clear
4:36 PM 12.2 °F -3.1 °F -0.4 °F 57% 29.63 in 10.0 mi North 13.8 mph 19.6 mph N/A   Clear
4:56 PM 12.2 °F -3.1 °F -0.4 °F 57% 29.61 in 10.0 mi North 13.8 mph 21.9 mph N/A   Clear
5:16 PM 12.2 °F -3.1 °F -0.4 °F 57% 29.60 in 10.0 mi North 13.8 mph - N/A   Clear
5:36 PM 12.2 °F -1.8 °F -0.4 °F 57% 29.60 in 10.0 mi North 11.5 mph - N/A   Clear
5:56 PM 12.2 °F 0.7 °F -0.4 °F 57% 29.59 in 10.0 mi North 8.1 mph - N/A   Clear
6:16 PM 12.2 °F 0.7 °F -0.4 °F 57% 29.58 in 10.0 mi North 8.1 mph - N/A   Clear
6:36 PM 12.2 °F - -0.4 °F 57% 29.57 in 10.0 mi Calm Calm - N/A   Clear
6:56 PM 12.2 °F - -2.2 °F 53% 29.56 in 10.0 mi Calm Calm - N/A   Clear
7:16 PM 10.4 °F - -2.2 °F 57% 29.56 in 10.0 mi Calm Calm - N/A   Clear
7:36 PM 10.4 °F - -4.0 °F 52% 29.55 in 10.0 mi Calm Calm - N/A   Clear
7:56 PM 10.4 °F 4.0 °F -2.2 °F 57% 29.54 in 10.0 mi North 3.5 mph - N/A   Clear
8:16 PM 12.2 °F - -0.4 °F 57% 29.54 in 10.0 mi Calm Calm - N/A   Scattered Clouds
8:36 PM 10.4 °F - -0.4 °F 62% 29.54 in 10.0 mi Calm Calm - N/A   Mostly Cloudy
8:56 PM 12.2 °F - -0.4 °F 57% 29.54 in 10.0 mi Calm Calm - N/A   Overcast
9:16 PM 12.2 °F - -0.4 °F 57% 29.53 in 10.0 mi Calm Calm - N/A   Mostly Cloudy
9:36 PM 12.2 °F - -0.4 °F 57% 29.52 in 10.0 mi Calm Calm - N/A   Mostly Cloudy
9:56 PM 12.2 °F - -0.4 °F 57% 29.51 in 10.0 mi Calm Calm - N/A   Overcast
10:16 PM 15.8 °F 7.2 °F 3.2 °F 58% 29.50 in 10.0 mi North 5.8 mph - N/A   Overcast
10:36 PM 15.8 °F 6.1 °F 5.0 °F 62% 29.50 in 10.0 mi North 6.9 mph - N/A   Overcast
10:56 PM 15.8 °F - 3.2 °F 58% 29.50 in 10.0 mi Calm Calm - N/A   Overcast
11:16 PM 15.8 °F 10.2 °F 6.8 °F 68% 29.50 in 10.0 mi North 3.5 mph - N/A   Overcast
11:36 PM 17.6 °F 9.3 °F 8.6 °F 68% 29.49 in 10.0 mi North 5.8 mph - N/A   Overcast
11:56 PM 17.6 °F - 5.0 °F 58% 29.49 in 10.0 mi Calm Calm - N/A   Overcast